Location: Colossi of Memnon
(25.7167°N, 32.6167°E)
Time: 09:20:39
(UTC+00:00)

Cosmos 1151 Rocket - Pass Details

Date: 05 March 2021
Orbit: 593 x 615 km, 82.5° (Epoch: 19 April)

Event Time Altitude Azimuth Distance (km) Brightness Sun altitude
Rises 02:40:27 0° 173° (S) 2,860 6.5 -20.7°
Reaches altitude 10° 02:42:43 10° 168° (SSE) 1,956 5.7 -20.2°
Maximum altitude 02:46:54 50° 93° (E) 779 3.9 -19.3°
Drops below altitude 10° 02:51:04 10° 18° (NNE) 1,952 5.9 -18.3°
Sets 02:53:19 0° 13° (NNE) 2,854 6.7 -17.8°
